Location: Bercimuel
(41.3983°N, 3.5711°W)
Time: 11:40:51
(UTC+00:00)

Cosmos 1536 - Pass Details

Date: 15 May 2026
Orbit: 482 x 500 km, 82.5° (Epoch: 9 June)

Event Time Altitude Azimuth Distance (km) Brightness Sun altitude
Rises 23:08:06 0° 347° (NNW) 2,569 7.5 -27.8°
Reaches altitude 10° 23:10:14 10° 342° (NNW) 1,686 6.3 -27.9°
Enters shadow 23:12:14 29° 328° (NNW) 929 4.5 -28.1°
